TimeCST,TemperatureF,Dew PointF,Humidity,Sea Level PressureIn,VisibilityMPH,Wind Direction,Wind SpeedMPH,Gust SpeedMPH,PrecipitationIn,Events,Conditions,WindDirDegrees,DateUTC
12:15 AM,35.6,30.2,81,30.42,10.0,Calm,Calm,-,0.00,,Clear,0,2012-11-14 06:15:00
12:35 AM,35.6,30.2,81,30.42,10.0,Calm,Calm,-,0.00,,Clear,0,2012-11-14 06:35:00
12:55 AM,35.6,30.2,81,30.41,10.0,Calm,Calm,-,0.00,,Clear,0,2012-11-14 06:55:00
1:15 AM,35.6,30.2,81,30.40,9.0,North,5.8,-,0.00,,Clear,10,2012-11-14 07:15:00
1:35 AM,33.8,30.2,87,30.40,10.0,NNE,5.8,-,0.00,,Clear,20,2012-11-14 07:35:00
1:55 AM,33.8,32.0,93,30.40,9.0,North,6.9,-,0.00,,Clear,360,2012-11-14 07:55:00
2:15 AM,33.8,32.0,93,30.41,9.0,North,4.6,-,0.00,,Clear,360,2012-11-14 08:15:00
2:35 AM,35.6,30.2,81,30.41,10.0,NE,5.8,-,0.00,,Clear,40,2012-11-14 08:35:00
2:55 AM,35.6,30.2,81,30.40,10.0,NNE,6.9,-,0.00,,Clear,20,2012-11-14 08:55:00
3:15 AM,35.6,30.2,81,30.41,9.0,North,4.6,-,0.00,,Clear,10,2012-11-14 09:15:00
3:35 AM,35.6,30.2,81,30.40,10.0,NNE,4.6,-,0.00,,Clear,30,2012-11-14 09:35:00
3:55 AM,35.6,28.4,75,30.40,10.0,NNE,3.5,-,0.00,,Clear,30,2012-11-14 09:55:00
4:15 AM,33.8,30.2,87,30.39,10.0,NE,6.9,-,0.00,,Clear,40,2012-11-14 10:15:00
4:55 AM,33.8,30.2,87,30.39,9.0,NE,5.8,-,0.00,,Clear,50,2012-11-14 10:55:00
5:15 AM,33.8,30.2,87,30.40,9.0,NNE,4.6,-,0.00,,Clear,30,2012-11-14 11:15:00
5:35 AM,33.8,30.2,87,30.39,9.0,NE,6.9,-,0.00,,Clear,40,2012-11-14 11:35:00
5:55 AM,35.6,30.2,81,30.39,10.0,NNE,5.8,-,N/A,,Clear,20,2012-11-14 11:55:00
6:50 AM,35.6,30.2,81,30.38,7.0,NE,9.2,-,N/A,,Mostly Cloudy,50,2012-11-14 12:50:00
8:50 AM,39.2,30.2,70,30.41,9.0,NNE,11.5,-,N/A,,Mostly Cloudy,20,2012-11-14 14:50:00
9:50 AM,39.2,30.2,70,30.39,10.0,East,9.2,-,N/A,,Overcast,80,2012-11-14 15:50:00
10:50 AM,33.8,32.0,93,30.07,10.0,NE,6.9,-,N/A,,Mostly Cloudy,50,2012-11-14 16:50:00
11:50 AM,41.0,32.0,70,30.37,10.0,North,6.9,-,N/A,,Mostly Cloudy,350,2012-11-14 17:50:00
12:50 PM,42.8,32.0,66,30.35,10.0,NNE,8.1,-,N/A,,Mostly Cloudy,20,2012-11-14 18:50:00
1:50 PM,46.4,32.0,57,30.34,10.0,NNW,6.9,-,N/A,,Scattered Clouds,340,2012-11-14 19:50:00
2:45 PM,48.2,32.0,54,30.33,10.0,North,8.1,-,N/A,,Scattered Clouds,350,2012-11-14 20:45:00
4:50 PM,44.6,33.8,66,30.32,10.0,NE,5.8,-,N/A,,Clear,50,2012-11-14 22:50:00
5:50 PM,41.0,33.8,76,30.34,10.0,Calm,Calm,-,N/A,,Clear,0,2012-11-14 23:50:00
6:50 PM,39.2,33.8,81,30.34,10.0,Calm,Calm,-,N/A,,Clear,0,2012-11-15 00:50:00
7:50 PM,37.4,33.8,87,30.34,10.0,Calm,Calm,-,N/A,,Clear,0,2012-11-15 01:50:00
7:55 PM,37.4,33.8,87,30.34,10.0,Calm,Calm,-,0.00,,Clear,0,2012-11-15 01:55:00
8:15 PM,37.4,33.8,87,30.34,10.0,Calm,Calm,-,0.00,,Clear,0,2012-11-15 02:15:00
8:35 PM,37.4,35.6,93,30.34,10.0,Calm,Calm,-,0.00,,Clear,0,2012-11-15 02:35:00
8:55 PM,37.4,33.8,87,30.34,10.0,Calm,Calm,-,0.00,,Clear,0,2012-11-15 02:55:00
9:15 PM,35.6,33.8,93,30.34,10.0,Calm,Calm,-,0.00,,Clear,0,2012-11-15 03:15:00
9:35 PM,35.6,35.6,100,30.34,9.0,Calm,Calm,-,0.00,,Clear,0,2012-11-15 03:35:00
9:55 PM,35.6,35.6,100,30.33,10.0,Calm,Calm,-,0.00,,Clear,0,2012-11-15 03:55:00
10:15 PM,35.6,35.6,100,30.33,9.0,Calm,Calm,-,0.00,,Clear,0,2012-11-15 04:15:00
10:35 PM,35.6,35.6,100,30.33,10.0,Calm,Calm,-,0.00,,Clear,0,2012-11-15 04:35:00
10:55 PM,33.8,33.8,100,30.33,9.0,Calm,Calm,-,0.00,,Clear,0,2012-11-15 04:55:00
11:15 PM,33.8,33.8,100,30.32,9.0,Calm,Calm,-,0.00,,Clear,0,2012-11-15 05:15:00
11:35 PM,33.8,33.8,100,30.32,7.0,Calm,Calm,-,0.00,,Clear,0,2012-11-15 05:35:00
11:55 PM,33.8,33.8,100,30.32,8.0,Calm,Calm,-,0.00,,Clear,0,2012-11-15 05:55:00